Date,TemperatureHighF,TemperatureAvgF,TemperatureLowF,DewpointHighF,DewpointAvgF,DewpointLowF,HumidityHigh,HumidityAvg,HumidityLow,PressureMaxIn,PressureMinIn,WindSpeedMaxMPH,WindSpeedAvgMPH,GustSpeedMaxMPH,PrecipitationSumIn
2013-3-1,44,41,37,31,27,24,65,57,46,29.91,29.75,0,0,0,0.00
2013-3-2,37,34,31,25,22,19,67,59,48,29.92,29.84,0,0,0,0.00
2013-3-3,41,34,30,22,18,15,69,53,37,29.95,29.82,0,0,0,0.00
2013-3-4,43,35,30,18,16,12,60,45,30,30.06,29.94,0,0,0,0.00
2013-3-5,50,40,33,32,20,4,81,45,15,30.11,29.84,0,0,0,0.00
2013-3-6,40,36,33,36,34,32,100,93,74,30.01,29.61,0,0,0,0.00
2013-3-7,50,42,37,33,28,24,75,58,37,30.17,30.01,0,0,0,0.00
2013-3-8,49,43,37,29,27,23,69,54,42,30.28,30.15,0,0,0,0.00
2013-3-9,59,47,36,34,25,18,71,45,20,30.38,30.26,0,0,0,0.00
2013-3-10,63,49,36,38,26,7,86,48,11,30.36,30.24,0,0,0,0.00
2013-3-11,61,52,44,50,45,39,93,79,66,30.27,29.96,0,0,0,0.00
2013-3-12,58,54,43,56,46,31,99,78,53,29.99,29.71,0,0,0,0.00
2013-3-13,51,43,36,32,26,16,75,52,27,30.09,29.92,0,0,0,0.00
2013-3-14,46,38,33,20,16,11,54,40,26,30.16,30.04,0,0,0,0.00
2013-3-15,57,46,34,38,27,18,68,47,30,30.12,29.80,0,0,0,0.00
2013-3-16,61,49,41,49,38,34,84,67,47,29.93,29.65,0,0,0,0.00
2013-3-17,41,39,37,36,31,26,84,74,58,30.30,29.92,0,0,0,0.00
2013-3-18,39,37,32,37,31,23,99,83,54,30.35,29.91,0,0,0,0.00
2013-3-19,59,46,37,42,29,2,98,64,11,29.94,29.73,0,0,0,0.00
2013-3-20,53,46,38,23,11,3,45,24,16,30.02,29.78,0,0,0,0.00
2013-3-21,43,35,30,28,14,5,78,44,30,29.93,29.79,0,0,0,0.00
2013-3-22,48,37,29,22,15,9,52,40,27,30.02,29.91,0,0,0,0.00
2013-3-23,54,43,32,26,21,19,66,43,27,30.06,29.92,0,0,0,0.00
2013-3-24,43,38,34,34,25,20,96,60,43,30.02,29.68,0,0,0,0.00
2013-3-25,64,35,32,36,34,31,99,97,92,29.72,29.54,0,0,0,0.00
2013-3-26,49,42,35,35,30,22,96,66,36,30.00,29.72,0,0,0,0.00
2013-3-27,51,44,39,30,27,22,65,51,36,30.15,30.00,0,0,0,0.00
2013-3-28,48,44,39,30,28,25,61,53,41,30.25,30.11,0,0,0,0.00
2013-3-29,56,48,42,34,28,22,63,47,29,30.28,30.16,0,0,0,0.00
2013-3-30,61,50,41,36,29,18,79,48,20,30.24,30.12,0,0,0,0.00
2013-3-31,56,50,45,50,41,28,95,72,44,30.15,29.76,0,0,0,0.00